Regional Weather Roundup
Issued by NWS

Home | Current Version | Previous Version | Graphics & Text | Print | Product List | Glossary On
Versions: 1 2 3 4 5 6 7 8 9 10 11 12 13 14 15 16 17 18 19 20 21 22 23 24 25 26 27 28 29 30 31 32 33 34 35 36 37 38 39 40 41 42 43 44 45 46 47 48 49 50
922
ASUS45 KBOU 070607
RWRCO

WEATHER ROUNDUP FOR COLORADO
NATIONAL WEATHER SERVICE DENVER/BOULDER CO
1100 PM MST TUE DEC 06 2016

NOTE: "FAIR" INDICATES FEW OR NO CLOUDS BELOW 12000 FEET WITH NO
SIGNIFICANT WEATHER AND/OR OBSTRUCTIONS TO VISIBILITY.

COZ001>005-013-030-031-070700-
...NORTHWEST COLORADO...

CITY           SKY/WX    TMP DP  RH WIND       PRES   REMARKS
CRAIG          LGT SNOW  18  14  84 W9        29.82R FOG     WCI   7
HAYDEN         CLOUDY    16  10  79 W7        29.78R WCI   6
MEEKER         LGT SNOW  19  16  88 W6        29.81R FOG     WCI  11
MOUNT WERNER   NOT AVBL
STEAMBOAT SPGS CLOUDY    16  14  92 SW6       29.76R WCI   7
WALDEN           N/A     10   5  79 CALM      29.69F
$$

COZ006>008-011-070700-
...WEST CENTRAL VALLEYS...

CITY           SKY/WX    TMP DP  RH WIND       PRES   REMARKS
GRAND JUNCTION LGT SNOW  26  25  96 SW3       29.87S FOG
MONTROSE       CLOUDY    25  21  85 NW20G28   29.84R WCI  11
EAGLE          LGT SNOW  22  19  89 SW8       29.80R FOG     WCI  12
RIFLE          LGT SNOW  24  20  84 W8        29.87R FOG     WCI  15
DELTA          NOT AVBL
NUCLA          MOCLDY    30  12  47 NW7       29.85R WCI  23
$$

COZ017>023-064>068-070700-
...SOUTHWEST COLORADO...

CITY           SKY/WX    TMP DP  RH WIND       PRES   REMARKS
DURANGO        FAIR      29  16  58 SW9       29.77R WCI  20
CORTEZ         FAIR      35  21  56 SW15      29.78R WCI  25
PAGOSA SPRINGS MOCLDY    33  16  50 SW16G23   29.75S WCI  22
TELLURIDE      CLOUDY    28  13  54 W20G26    29.76R WCI  14
WOLF CREEK PAS HVY SNOW  12  12 100 SW26G44   29.68R VSB<1/4 WCI  -8
$$

COZ009-010-012-014-032>034-037-058>063-070700-
...CENTRAL COLORADO...

CITY           SKY/WX    TMP DP  RH WIND       PRES   REMARKS
ASPEN          LGT SNOW  18  15  88 N16G25    29.70R FOG     WCI   3
BUENA VISTA    LGT SNOW  14  10  82 SE3       29.65R
COPPER MTN     CLOUDY    10   3  72 MISG      29.56S
BERTHOUD PASS  SNOW       0 -13  55 NW23G29   29.54R VSB 1/2 WCI -24
COTTONWOOD PAS LGT SNOW  21  18  86 CALM      29.59R VSB 1
GUNNISON       FLURRIES  28  17  63 W20G28    29.68R WCI  15
KREMMLING      FLURRIES  21  12  68 CALM      29.75R
LEADVILLE      LGT SNOW  13   7  77 W16G25    29.60F WCI  -3
MONARCH PASS   LGT SNOW  12   9  85 W51G132   29.63S VSB 3/4 WCI -14
SALIDA         CLOUDY    15  10  80 SE8G20    29.73S WCI   4
SUNLIGHT       HVY SNOW   5   1  85 W12G25    29.71R VSB 1/4 WCI -11
WILKERSON PASS LGT SNOW   7   3  85 SW7       29.59R VSB 3/4 WCI  -5
$$

COZ069>075-070700-
...SAN LUIS VALLEY/SANGRE DE CRISTO MOUNTAINS...

CITY           SKY/WX    TMP DP  RH WIND       PRES   REMARKS
ALAMOSA        FAIR      28  20  71 S16       29.68F WCI  16
LA VETA PASS   CLOUDY    21  18  86 NE31G48   29.62F WCI   3
SAGUACHE       MOCLDY    19  16  86 SE8       29.67R WCI   9
$$

COZ035-036-038>040-070700-
...NORTHERN COLORADO FRONT RANGE...

CITY           SKY/WX    TMP DP  RH WIND       PRES   REMARKS
DENVER INTL AP LGT SNOW  17  13  84 E14       29.86R FOG     WCI   3
DMNS CITY PARK   N/A     18  17  94 E8        29.87R WCI   8
AURORA         NOT AVBL
FRONT RANGE AP LGT SNOW  19  18  93 E8        29.87R WCI   9
ERIE MUNI ARPT LGT SNOW  19  17  91 NE3       29.90R
BOULDER MUN AP LGT SNOW  19  18  93 N6        29.89R WCI  11
CENTENNIAL     LGT SNOW  16  12  84 SE8       29.83R VSB 1   WCI   5
BROOMFIELD     LGT SNOW  19  18  93 E7        29.86R WCI  10
FORT COLLINS   CLOUDY    19  16  86 E6        29.91S WCI  11
LONGMONT       LGT SNOW  22  19  87 NE3       29.93R VSB 1
$$

COZ041-046-047-076>085-087-088-070700-
...PIKES PEAK/PALMER DIVIDE AND SOUTHERN FOOTHILLS...

CITY           SKY/WX    TMP DP  RH WIND       PRES   REMARKS
COLO. SPRINGS  MOCLDY    14   3  61 N8        29.79F WCI   3
A. F. ACADEMY  CLOUDY    12   7  79 CALM      29.77S
SCHRIEVER AFB  NOT AVBL
ELLICOTT       FAIR     N/A N/A N/A NE14        N/A
FALCON         FAIR      10   4  76 N6        29.77F WCI   1
FORT CARSON    MOCLDY    15   9  77 N7        29.79R WCI   5
LIMON          CLOUDY    16  10  77 E12       29.85F WCI   3
MONUMENT HILL  CLOUDY    12   3  67 E5        29.77S WCI   4
TRINIDAD       CLOUDY    20   5  52 VRB3      29.75
$$

COZ042>045-048>051-090-091-070700-
...NORTHEAST COLORADO...

CITY           SKY/WX    TMP DP  RH WIND       PRES   REMARKS
GREELEY ARPT   FLURRIES  20  14  77 E8        29.95R WCI  10
AKRON          LGT SNOW  19  14  81 E13       29.90F WCI   6
BURLINGTON     CLOUDY    25  -1  32 E12       29.93F WCI  14
WRAY           NOT AVBL
STERLING       CLOUDY    21  18  86 NE6       29.95F WCI  14
HOLYOKE        LGT SNOW  25  18  74 NE9       29.99F WCI  15
FORT MORGAN    CLOUDY    20  14  78 NE7       29.95R WCI  11
$$

COZ086-089-092>099-070700-
...SOUTHEAST COLORADO...

CITY           SKY/WX    TMP DP  RH WIND       PRES   REMARKS
PUEBLO         MOCLDY    20   1  43 N8        29.83R WCI  10
LA JUNTA       FAIR      19   2  47 S9        29.82S WCI   8
LAMAR          FAIR      21   3  45 SE13      29.88F WCI   9
SPRINGFIELD      N/A     17   5  59 S18       29.84F WCI   1
$$




USA.gov is the U.S. government's official web portal to all federal, state and local government web resources and services.